sat.trackr.live / text

‹ back to catalog

FRONTIERSAT

NORAD 69015 · 2026-100AM

PAYLOAD ACTIVE UNKNOWN

§ Identity

Operator
Country
CA
Launch date
2026-05-03
Launch site
AFWTR
Launch vehicle
Mass (kg)
RCS (m²)

External: N2YO · Heavens-Above · Gunter

§ Orbital elements

Epoch: 2026-09-20T04:05:02.520384Z

Period
94.55 min
Inclination
97.3859°
Eccentricity
0.0009871
Mean motion
15.22978971 rev/d
Perigee alt
490.1 km
Apogee alt
503.6 km
Semi-major
6,875.0 km
B*
2.2259e-4
RAAN
159.4782°
Arg perigee
73.4169°
Mean anomaly
286.8151°
Rev number
2,127

§ Raw data

FRONTIERSAT1 69015U 26100AM  26263.17016806  .00005167  00000+0  22259-3 0  99992 69015  97.3859 159.4782 0009871  73.4169 286.8151 15.22978971 21279

JSON: /api/v1/satellites/69015 · /tle

For live sub-satellite position, see the globe view (requires WebGL).

§ Visibility from observer

Set your observer location to see the next 7 days of passes ≥ 10°. The values pass through the URL so the page stays shareable.

No JS? Fill the form by hand. The geolocation button needs JavaScript.

§ Radio — SatNOGS DB

ModeDescriptionDownlinkUplink
FSK AX.100 Mode 5 Mode U - GFSK9k6 - Downlink 436.150 MHz

1 transmitter · refreshed weekly from db.satnogs.org